Manchester, NH

7:35 AM EST on November 15, 2019 (GMT -0500)
Manchester

Weather History for KMHT - October, 2019

Change the Weather History Date:

Wednesday, October 23, 2019

  Actual Average Record
Temperature  
Mean Temperature 57 °F 48 °F  
Max Temperature 68 °F 59 °F 76 °F (2007)
Min Temperature 46 °F 38 °F 21 °F (1955)
Degree Days  
Heating Degree Days 8 17  
Month to date heating degree days 247 302  
Since 1 July heating degree days 326 445  
Cooling Degree Days 0 0  
Month to date cooling degree days 2 0  
Year to date cooling degree days 844 638  
Growing Degree Days 8 (Base 50)    
Moisture  
Dew Point 47 °F    
Average Humidity 66    
Maximum Humidity 100    
Minimum Humidity 31    
Precipitation  
Precipitation 0.29 in 0.14 in 1.98 in (2014)
Month to date precipitation 2.09 3.17  
Year to date precipitation 25.65 36.24  
Snow  
Snow 0.00 in - - ()
Month to date snowfall 0.0  
Since 1 July snowfall 0.0  
Snow Depth 0.00 in    
Sea Level Pressure  
Sea Level Pressure 29.86 in    
Wind  
Wind Speed 7 mph (NW)    
Max Wind Speed 22 mph    
Max Gust Speed 29 mph    
Visibility 7 miles    
Events Rain    
T = Trace of Precipitation, MM = Missing Value Source: NWS Daily Summary

Daily Weather History Graph

Daily Weather History Graph

Search for Another Location

Airport or City:

Astronomy

Oct. 23, 2019 Rise Set
Actual Time 7:08 AM EDT 5:50 PM EDT
Civil Twilight 6:39 AM EDT 6:19 PM EDT
Nautical Twilight 6:06 AM EDT 6:52 PM EDT
Astronomical Twilight 5:33 AM EDT 7:25 PM EDT
Moon 1:12 AM EDT (10/23) 3:49 PM EDT (10/23)
Length of Visible Light 11h 40m
Length of Day
10h 42m
Waning Crescent, 27% of the Moon is Illuminated
Oct 23
Waning Crescent
Oct 27
New
Nov 4
First Quarter
Nov 12
Full
Nov 19
Last Quarter

Hourly Weather History & Observations

Time (EDT) Temp. Dew Point Humidity Pressure Visibility Wind Dir Wind Speed Gust Speed Precip Events Conditions
12:53 AM 54.0 °F 53.1 °F 97% 29.91 in 2.0 mi NNE 3.5 mph - 0.00 in Rain Light Rain
1:53 AM 54.0 °F 53.1 °F 97% 29.88 in 2.0 mi ENE 5.8 mph - 0.00 in Rain Light Rain
2:53 AM 54.0 °F 53.1 °F 97% 29.85 in 2.0 mi NNE 5.8 mph - 0.10 in Rain Light Rain
3:53 AM 55.0 °F 53.1 °F 93% 29.81 in 4.0 mi NE 4.6 mph - 0.02 in Rain Light Rain
4:53 AM 55.0 °F 54.0 °F 96% 29.79 in 5.0 mi Calm Calm - 0.00 in Rain Light Rain
5:25 AM 55.0 °F 54.0 °F 96% 29.74 in 7.0 mi Variable 3.5 mph - 0.00 in   Overcast
5:53 AM 55.0 °F 54.0 °F 96% 29.80 in 1.5 mi NW 8.1 mph - 0.04 in Rain Heavy Rain
6:01 AM 55.0 °F 54.0 °F 96% 29.76 in 1.5 mi NW 8.1 mph - 0.01 in Rain Light Rain
6:12 AM 55.0 °F 54.0 °F 96% 29.76 in 1.5 mi NW 9.2 mph - 0.01 in Rain Light Rain
6:32 AM 54.0 °F 53.1 °F 97% 29.77 in 1.5 mi WNW 10.4 mph - 0.06 in Rain Rain
6:47 AM 53.6 °F 53.6 °F 100% 29.77 in 3.0 mi NW 6.9 mph - 0.13 in Rain Rain
6:53 AM 54.0 °F 53.1 °F 97% 29.81 in 3.0 mi NW 9.2 mph - 0.13 in Rain Light Rain
7:43 AM 54.0 °F 52.0 °F 93% 29.74 in 8.0 mi North 10.4 mph - 0.00 in Rain Light Rain
7:53 AM 54.0 °F 52.0 °F 93% 29.78 in 10.0 mi North 9.2 mph - 0.00 in Rain Light Rain
8:53 AM 55.0 °F 52.0 °F 89% 29.81 in 10.0 mi NW 4.6 mph - 0.00 in   Overcast
9:00 AM 55.0 °F 52.0 °F 89% 29.76 in 10.0 mi Variable 3.5 mph - N/A   Overcast
9:53 AM 55.9 °F 52.0 °F 87% 29.81 in 10.0 mi NW 8.1 mph - N/A   Overcast
10:53 AM 59.0 °F 53.1 °F 81% 29.82 in 10.0 mi NW 10.4 mph - N/A   Mostly Cloudy
11:53 AM 63.0 °F 46.9 °F 56% 29.83 in 10.0 mi NW 15.0 mph 27.6 mph N/A   Scattered Clouds
12:53 PM 64.9 °F 44.1 °F 47% 29.82 in 10.0 mi NW 12.7 mph 23.0 mph N/A   Scattered Clouds
1:53 PM 66.9 °F 43.0 °F 42% 29.82 in 10.0 mi NW 13.8 mph 24.2 mph N/A   Scattered Clouds
2:53 PM 64.9 °F 37.9 °F 37% 29.84 in 10.0 mi WSW 10.4 mph 20.7 mph N/A   Partly Cloudy
3:17 PM 66.0 °F 36.0 °F 33% 29.83 in 10.0 mi NW 13.8 mph 26.5 mph N/A   Scattered Clouds
3:53 PM 64.0 °F 34.0 °F 33% 29.88 in 10.0 mi West 10.4 mph 19.6 mph N/A   Partly Cloudy
4:53 PM 63.0 °F 34.0 °F 34% 29.91 in 10.0 mi West 11.5 mph - N/A   Partly Cloudy
5:53 PM 61.0 °F 36.0 °F 39% 29.94 in 10.0 mi West 5.8 mph - N/A   Partly Cloudy
6:53 PM 59.0 °F 36.0 °F 42% 29.98 in 10.0 mi Variable 3.5 mph - N/A   Partly Cloudy
7:53 PM 57.0 °F 36.0 °F 45% 30.02 in 10.0 mi SW 5.8 mph - N/A   Clear
8:53 PM 54.0 °F 37.0 °F 53% 30.05 in 10.0 mi South 4.6 mph - N/A   Clear
9:53 PM 51.1 °F 39.0 °F 63% 30.08 in 10.0 mi South 5.8 mph - N/A   Clear
10:53 PM 50.0 °F 37.9 °F 63% 30.10 in 10.0 mi Calm Calm - N/A   Clear
11:53 PM 48.9 °F 37.9 °F 66% 30.12 in 10.0 mi SE 4.6 mph - N/A   Clear